KVJI

Details ICAO KVJI
Name Virginia Highlands
Region United States
Timezone America/New_York (UTC-4.0)
Plans Departing 1
Arriving 7
Stats Elevation 2,087 ft / 636 m (AMSL)
Location 36.687103° -82.033327°
Runways 1
Magnetic Variation 7.232° W
Sunrise 2018-05-26 10:14:57 UTC / 2018-05-26 06:14:57 Local
Sunset 2018-05-27 00:38:19 UTC / 2018-05-26 20:38:19 Local
Advertisement - Login to hide

Runways

ID Width Length Bearing (true) Bearing (mag) Surface Threshold Offset Overrun Length
06 75 ft / 23 m 4,467 ft / 1,361 m 55.90° 63.13° Asphalt 0 ft / 0 m 98 ft / 30 m
24 75 ft / 23 m 4,467 ft / 1,361 m 235.91° 243.14° Asphalt 0 ft / 0 m 0 ft / 0 m

Approach Navaids

Runway Type Ident Frequency Range Bearing (true) Bearing (mag) Slope Elevation
24 Localiser IVJI 108.30 MHz 18 nm / 33 km 235.90° 243.13° - 2,087 ft / 636 m (AMSL)
24 DME IVJI 108.30 MHz 18 nm / 33 km - - - 2,087 ft / 636 m (AMSL)

Map

Weather


0- 5 10 15 20 25 30 35+ Temperature / ° C

Clouds and Precipitation
Forecast for 2018-05-27 00:00 UTC. Updated 32 minutes ago

Ground ~20,000 ft ~40,000 ft Winds

METAR

KVJI 262335Z AUTO 00000KT 10SM SCT120 25/20 A2995 RMK AO2 T02450201

TAF

Not found

Frequencies

Recorded 128.12 MHz AWOS 3
Unicom 122.80 MHz CTAF/UNICOM
Warning: Do not use this data for real-world aviation or navigation. No guarantee of current accuracy is given.